CAPE
3382 2931 1853 1600 1574 1788 2004 1891 361 2 0 0 0 0 4 73 70 226 128 18 41 133 42 0 0 95 24 102 399 170 184 315 432 0 1 76 108 360 383 413 570 605 657 727 905 976 1130 1095 1182 1486 1980 2110 2209 2148 2184 2309 2342 2537 2325 2401 2451 2544 2431 2316 2116 1876 2025 2382 2668 2258 2256 2494 2846 3067 3111 3040 3179 3289 3504 3506 3486 3468 3481 3528 3606 3589 3488 3540 3682 3661 3660 3655 3727 3671 3626 3607 3533
3076 2348 1718 1697 1728 2143 2123 1743 262 0 0 0 0 0 0 89 16 41 88 113 164 229 159 102 102 138 220 198 222 229 113 292 380 245 314 300 349 391 466 526 631 669 676 840 990 1132 1270 1216 1236 1620 2094 2267 2270 2051 2198 2332 2304 2618 2463 2352 2507 2718 2426 2332 2011 1994 2147 2475 2546 2517 2408 2708 2844 2958 3046 3163 3366 3400 3404 3495 3492 3502 3487 3457 3410 3467 3459 3598 3468 3227 3098 3542 3683 3592 3572 3523 3525
2498 1599 1753 1750 1990 2078 1939 1361 0 0 0 0 0 0 32 143 212 278 304 314 270 168 94 73 53 60 35 38 56 165 24 329 311 401 569 533 503 448 518 658 714 765 868 959 1070 1165 1314 1368 1287 1511 1946 2140 2020 1905 2227 2406 2381 2366 2466 2589 2503 2520 2341 2322 2148 2184 2306 2707 2590 2596 2679 2730 2870 2962 3121 3227 3372 3483 3514 3556 3426 3375 3373 3430 3464 3503 3574 3510 3532 3328 2984 3137 3428 3480 3488 3469 3382
1598 1373 1506 1927 2030 2204 1998 686 0 0 0 0 0 0 46 273 248 183 172 148 122 49 115 165 101 28 30 50 116 105 220 329 418 460 503 666 634 548 650 874 994 1044 1080 1111 1108 1238 1394 1500 1381 1519 1798 2064 1932 1804 2250 2416 2393 2436 2537 2508 2475 2516 2503 2505 2382 2540 2674 2823 2602 2618 2722 2652 2770 3048 3240 3358 3270 3304 3432 3354 3314 3266 3332 3379 3471 3397 3437 3457 3242 3178 3078 3109 2720 3122 3202 3340 3149
1548 1612 2043 2500 2421 2384 1802 528 0 0 0 0 1 2 262 331 281 149 33 0 6 39 90 105 79 249 172 153 194 262 342 384 392 458 607 829 778 762 820 1022 1195 1227 1202 1303 1265 1390 1660 1908 1694 1511 1881 1987 2112 2082 2208 2261 2399 2649 2491 2324 2447 2510 2594 2779 2696 2802 2800 2764 2679 2751 2642 2724 2852 3129 3287 3328 3297 3271 3257 3363 3228 3294 3386 3479 3442 3394 3349 3158 2865 2827 2854 2954 2950 2882 3126 2858 3310
1911 1918 2080 2434 2504 2067 1452 0 0 0 0 0 0 0 86 129 34 0 3 11 19 27 16 17 38 173 152 126 228 278 253 347 485 612 745 938 968 1096 1122 1250 1202 1242 1287 1326 1371 1546 1845 1934 1835 1985 2185 2349 2282 2249 2420 2509 2238 2649 2626 2676 2656 2681 2814 2840 2763 2704 2557 2618 2708 2773 2856 2764 2952 3047 3174 3216 3178 3126 3166 3288 3322 3362 3370 3371 3385 3305 3160 3087 3058 3007 2812 2356 2341 2431 2604 2638 2642
2148 2218 2209 2494 2570 2126 1096 0 0 0 0 0 0 0 1 1 2 10 10 2 1 6 8 38 57 83 274 316 358 402 444 348 595 646 858 1071 1115 1216 1108 1003 1090 1190 1308 1466 1607 1784 1961 2403 2006 2133 2340 2310 2250 2358 2413 2574 2216 2159 2310 2714 2598 2617 2907 2955 2909 2758 2564 2474 2403 2550 2830 2807 2882 2897 2968 2892 3046 3014 3196 3290 3311 3137 3062 3051 3034 2958 3104 3044 3164 2934 2734 2636 2723 2662 2620 2447 2639
2348 2182 2103 2003 1428 1229 0 0 0 0 0 0 0 0 0 0 0 0 0 0 0 1 28 58 262 289 428 558 353 412 780 1043 1018 871 1106 1304 1236 1240 1031 1026 1034 1062 1316 1499 1706 1842 2467 2583 2556 2538 2481 2288 2168 2241 2530 2574 2314 2548 2828 2796 2731 2694 2716 2695 2637 2617 2644 2546 2501 2641 2782 2800 2851 2887 2924 2992 3006 2922 2979 3029 3011 2864 2641 2819 2914 3038 3123 3081 2953 2993 2963 2896 2740 2582 2564 2311 2664
2179 1980 1868 1600 0 0 0 0 0 0 0 0 0 40 119 0 0 0 0 44 164 231 229 144 21 20 442 531 592 654 866 1161 1067 1100 1249 1252 1161 1160 1156 1101 1130 1301 1396 1693 1783 2047 2488 2592 2535 2637 2672 2649 2487 2578 2636 2748 2581 2824 2855 2784 2825 2827 2818 2754 2637 2594 2644 2658 2749 2775 2897 2903 2968 2952 2972 3141 3062 2925 3040 3026 2940 2725 2744 2785 2917 2943 2930 2924 2843 2854 2860 2729 2650 2340 2516 2634 2823
1939 1936 721 661 0 0 0 0 4 12 2 1 16 65 0 0 0 0 9 39 149 196 442 544 333 380 459 370 569 798 856 1260 1280 1430 1491 1314 1196 1270 1223 1210 1274 1398 1598 1766 1804 2221 2330 2688 2558 2674 2841 2943 2894 2740 2716 2847 2903 2772 2768 2790 2859 2837 2837 2719 2604 2649 2720 2736 2822 2829 2835 2912 2956 2978 2977 2998 2957 2842 2828 2920 2708 2748 2750 2824 2837 2777 2891 3119 3190 3258 3028 2528 2544 2481 2594 2591 2608
1670 1428 876 146 0 0 0 0 0 0 10 13 9 5 2 4 1 25 71 144 274 498 474 370 372 396 396 732 794 775 1024 1198 1278 1291 1512 1521 1413 1297 1267 1314 1393 1503 1745 1846 1972 2267 2279 2505 2598 2802 2820 3058 3006 2730 2735 2844 2869 2811 2882 2896 2930 2936 2814 2772 2748 2624 2470 2652 2576 2730 2876 2887 2823 2792 2912 2777 2732 2877 2925 2735 2789 2797 2847 2853 2743 2792 3076 3122 3145 3069 2716 2403 2253 2292 2398 2339 2213
1129 1124 1013 0 0 0 0 0 0 0 0 0 1 27 18 60 188 199 159 264 353 350 292 262 364 524 631 666 561 813 969 1081 1255 1350 1452 1448 1345 1316 1346 1437 1618 1809 1972 1923 2091 2274 2304 2542 2640 2812 2722 3082 3092 2921 2887 2848 2813 2869 2908 2880 2904 2967 2962 2937 2800 2646 2537 2484 2591 2650 2802 2830 2762 2814 2832 2848 2836 2793 2768 2783 2787 2743 2650 2664 2534 2510 2608 2785 2699 2330 2526 2475 2708 2492 2302 2279 1797
971 738 724 0 0 0 0 0 0 0 0 0 12 8 70 152 148 138 198 306 293 155 229 321 454 449 450 743 912 786 914 1098 1288 1357 1398 1448 1364 1276 1503 1697 1896 2057 2056 2069 2156 2348 2364 2436 2557 2652 2400 2706 2778 2756 2784 2827 2810 2832 2864 2835 2816 2770 2639 2802 2866 2740 2712 2640 2645 2720 2732 2712 2743 2918 2975 2925 2862 2847 2830 2754 2616 2551 2513 2560 2660 2707 2496 2279 2166 2136 2260 2498 2470 2455 2275 2230 2099
868 294 0 0 0 0 0 0 0 0 0 0 20 80 113 142 189 273 277 264 144 119 302 400 598 755 834 741 836 777 839 1073 1257 1322 1393 1536 1564 1571 1682 1837 2020 2136 2225 2271 2374 2460 2423 2358 2470 2266 2302 2544 2458 2820 2816 2873 2856 2856 2761 2699 2699 2730 2611 2772 2595 2448 2870 2874 2924 2908 2842 2919 3000 3009 2915 2889 2860 2746 2705 2509 2613 2527 2472 2805 2828 2722 2448 2230 2014 1585 1653 1882 1930 1742 1800 2058 2256
796 278 0 0 0 0 0 0 0 0 0 4 93 140 158 180 280 262 175 145 397 487 482 699 596 184 316 566 561 691 866 1062 1223 1290 1519 1703 1751 1730 1783 1945 2138 2255 2292 2328 2434 2518 2438 2502 2442 2503 2533 2445 2465 2548 2583 2857 2836 2589 2646 2578 2684 2866 2246 2631 2672 2884 2965 2933 2960 2951 2958 3071 3094 2927 2887 2889 2832 2753 2797 2644 2622 2601 2722 2795 2540 2368 2582 2346 2172 1880 1757 1833 2016 1959 1754 1737 1926
799 723 0 0 0 0 0 0 0 0 0 34 130 48 94 142 187 126 94 305 577 512 458 578 571 476 302 456 397 692 957 1110 1298 1403 1648 1779 1749 1761 1796 1977 2118 2215 2249 2286 2420 2568 2519 2552 2570 2619 2628 2479 2387 2428 2494 2476 2736 2464 2727 2567 2534 2361 2808 2605 2768 2764 2729 2609 2886 2982 3083 3128 3019 2992 2899 2979 2845 2739 2695 2617 2699 2786 2512 2652 3008 2674 2798 2824 1928 1918 1900 2054 2257 1990 1791 1764 1853
817 716 6 0 0 0 0 0 0 0 0 118 239 109 180 154 124 528 547 524 480 411 306 530 552 368 466 595 670 861 1050 1348 1471 1506 1637 1678 1685 1638 1709 1826 1993 2086 2140 2239 2316 2485 2617 2568 2607 2613 2699 2598 2511 2406 2412 2419 2776 2818 2846 2838 2922 2904 2422 2818 2548 2564 2407 2392 2904 2927 3026 3424 2735 2646 2734 2492 2767 3298 3664 3248 3136 2294 2502 2799 2688 2769 2458 2162 1943 1879 2061 1980 2029 1882 1934 1881 1708
342 138 0 0 0 0 0 0 0 0 3 68 21 107 111 140 269 509 407 252 257 213 356 549 749 812 816 825 858 1017 1228 1452 1472 1522 1420 1452 1434 1424 1448 1575 1739 1867 1969 2178 2282 2429 2568 2560 2579 2624 2726 2667 2540 2328 2317 2404 2780 2936 2721 2828 3060 2770 2647 2582 2768 2839 2887 2749 2968 2940 2780 3050 2580 2486 2309 3340 2949 3476 3364 3243 2507 2464 2476 2557 2650 2689 2708 2701 2471 2294 2222 2093 2032 1916 2215 2106 2070
0 0 0 0 0 0 0 0 0 2 21 236 299 82 131 163 324 228 237 175 243 437 576 886 1056 1084 1049 980 1002 1172 1324 1424 1532 1455 1337 1316 1254 1248 1263 1378 1508 1592 1773 2024 2164 2380 2474 2561 2596 2574 2725 2664 2458 2300 2301 2744 2461 2616 2749 2839 3029 3137 3316 3404 2691 3252 2694 2743 2736 2711 2912 2812 2340 2238 2234 2472 3089 3073 3370 3152 2960 2945 2588 2647 2873 2850 2805 2840 3028 2940 2208 1910 2828 2696 2212 2192 2215
0 0 0 0 0 0 0 0 0 0 5 172 287 97 154 205 272 126 157 156 244 402 634 895 1141 1192 1131 1104 1137 1252 1346 1417 1515 1402 1299 1229 1173 1150 1125 1235 1345 1449 1589 1810 1973 2274 2402 2474 2558 2544 2606 2602 2390 2267 2348 2662 2567 2614 2706 2826 2895 2948 2988 3047 2718 2897 2720 2642 2836 2806 2731 2599 2476 2261 3046 3146 2910 3252 2832 3256 3314 3375 3506 3246 3215 2354 1972 1383 1475 1180 1044 1624 1534 1266 1056 1106 1193
0 0 0 0 0 0 0 0 0 0 0 59 123 180 255 478 179 84 111 169 200 273 470 648 1121 1228 1232 1201 1279 1329 1380 1453 1498 1392 1263 1189 1140 1101 1064 1135 1218 1315 1439 1705 1904 2099 2267 2364 2434 2460 2438 2453 2401 2294 2338 2586 2730 2631 2704 2844 2923 2891 2843 3064 2796 2731 2606 2586 2784 2904 2834 2745 2596 2451 2320 2182 2270 2626 2721 2680 2480 2127 2262 2475 2440 2043 1068 524 612 488 602 961 1071 768 729 737 899
0 0 0 0 0 0 0 0 0 0 0 55 48 140 394 471 148 88 138 41 82 169 294 602 1129 1268 1283 1327 1390 1418 1426 1481 1494 1392 1272 1161 1090 1059 1053 1132 1154 1223 1488 1638 1718 1918 2120 2239 2297 2301 2215 2138 2213 2237 2318 2506 2813 2696 2680 2758 2847 2860 2844 2902 2937 2758 2619 2485 2538 2811 2868 2808 2678 2477 2260 2108 2094 2201 2364 2479 2323 2029 1812 1949 1562 710 641 660 688 633 774 1114 1046 680 536 556 880
0 0 0 0 0 0 0 0 0 0 2 22 37 145 430 468 297 101 67 9 43 100 309 777 1180 1284 1321 1395 1475 1520 1472 1480 1472 1370 1216 1134 1064 1024 1020 1080 1117 1192 1528 1604 1598 1772 1980 2116 2155 2137 2064 1980 2118 2168 2258 2476 2806 2766 2709 2714 2741 2760 2748 2778 2860 2824 2638 2532 2515 2592 2785 2719 2576 2417 2223 2055 2016 2062 2155 2201 2124 1898 1680 1413 1082 1184 1072 1062 845 726 968 1050 1008 756 623 834 897
0 0 0 0 0 0 0 0 0 0 0 7 18 179 353 467 254 121 80 25 18 260 550 974 1241 1334 1385 1503 1538 1570 1515 1466 1444 1358 1166 1064 1032 1000 1009 1052 1050 1202 1470 1559 1577 1700 2036 2040 2072 2025 1972 1971 2089 2232 2228 2204 2494 2646 2702 2956 2711 2499 2504 2574 2687 2792 2705 2506 2497 2490 3057 2456 2394 2310 2218 2075 1918 1907 1990 2015 1951 1802 1660 1195 1086 1162 1348 1368 1295 915 1188 1288 1296 1155 1044 962 932
0 0 0 0 0 0 0 0 0 0 0 0 71 273 230 190 214 76 82 140 245 555 805 1132 1344 1396 1410 1495 1555 1600 1553 1466 1430 1360 1230 1072 1064 1090 1060 1062 1080 1302 1444 1551 1579 1705 1867 2088 2064 1998 1926 2095 2068 2224 2240 2185 2240 2423 2516 2567 2457 2732 2501 2344 2461 2621 2675 2538 2395 2533 2901 2568 2334 2220 2128 2008 1918 1855 1862 1930 1937 1823 1644 1090 948 1020 1216 1428 1418 1079 1361 1338 1335 1209 1001 774 1051
0 0 0 0 0 0 0 0 0 0 0 2 139 394 430 64 21 100 83 338 549 726 922 1215 1402 1433 1449 1490 1547 1596 1587 1506 1452 1386 1298 1217 1255 1254 1216 1171 1196 1395 1442 1560 1640 1744 1870 2165 2114 2036 1936 2012 2077 2196 2228 2214 2188 2220 2294 2362 2326 2994 2486 2232 2264 2376 2476 2468 2314 2322 2596 2696 2340 2147 2053 1982 1922 1914 1945 2002 1949 1860 1678 1050 793 922 1032 1316 1392 1256 1231 1183 1124 1048 1017 928 1183
0 0 0 0 0 0 0 0 0 0 0 10 92 300 324 83 162 193 193 590 726 805 920 1238 1372 1427 1459 1477 1544 1596 1612 1579 1515 1422 1383 1303 1380 1340 1344 1292 1341 1446 1593 1628 1750 1853 2126 2231 2191 2106 1989 2359 2038 2140 2162 2183 2203 2178 2146 2179 2170 2472 2495 2302 2201 2190 2182 2249 2242 2207 2304 2676 2416 2143 2041 2043 2052 2019 2030 2061 2041 1957 1750 1015 1062 1080 1152 1281 1287 1298 1304 1269 1280 1210 1150 1030 859
0 0 0 0 0 0 0 0 3 9 1 2 30 51 81 109 298 161 267 722 762 834 909 1133 1260 1353 1409 1456 1522 1590 1625 1629 1590 1531 1478 1404 1399 1410 1449 1426 1412 1536 1630 1672 1808 2000 2212 2312 2268 2189 2057 2122 2114 2032 2328 2154 2146 2177 2200 2028 1997 2036 2317 2405 2278 2200 2083 2038 2221 2194 2208 2272 2729 2238 2084 2156 2263 2319 2307 2208 2068 1948 1801 1178 1171 1180 1234 1342 1334 1270 1194 1219 1182 1185 819 532 410
0 0 0 0 2 14 12 24 35 26 110 35 131 191 249 230 272 184 560 782 803 826 923 1016 1121 1218 1313 1384 1466 1570 1619 1648 1662 1630 1565 1482 1426 1463 1505 1543 1550 1638 1673 1671 1782 2154 2254 2370 2326 2247 2132 2004 2115 1942 1994 2104 2060 2087 2139 2063 1950 2099 2126 2349 2310 2251 2154 2019 1956 2137 2232 2302 2412 2398 2364 2416 2440 2410 2326 2170 2008 1999 1825 1257 1180 1212 1376 1331 1320 1306 1206 1128 1046 819 610 516 252
0 0 0 0 7 12 25 56 68 135 230 127 152 218 182 228 167 222 898 873 845 870 930 977 1043 1141 1220 1314 1398 1486 1569 1616 1653 1646 1616 1555 1489 1496 1534 1638 1704 1706 1746 1706 1760 2034 2227 2366 2353 2257 2160 1991 2012 1897 1887 2020 2032 1992 2142 2075 2294 2017 2070 2188 2280 2191 2189 2068 1979 1946 2043 2265 2428 2468 2531 2541 2477 2366 2262 2110 2007 2052 1634 1134 1180 1382 1405 1385 1304 1150 1040 1000 897 714 594 524 391
0 0 0 0 1 17 10 69 70 243 177 165 3 40 10 120 150 524 942 941 893 913 956 994 1050 1114 1184 1265 1318 1389 1462 1509 1538 1573 1558 1532 1502 1490 1496 1612 1699 1752 1859 1772 1834 1943 2228 2258 2326 2237 2281 1999 2196 1939 2070 2040 2182 2152 2146 2118 2104 2041 1997 2049 2090 2110 2118 2128 2172 2244 2402 2527 2471 2508 2624 2610 2426 2234 2100 2022 1667 1556 1146 1176 1309 1362 1318 1290 1208 1040 887 806 714 621 585 530 436
0 0 0 0 2 0 10 0 77 292 396 128 3 2 7 444 477 498 937 944 909 909 990 1028 1051 1098 1155 1224 1260 1291 1340 1367 1418 1466 1470 1465 1450 1448 1449 1538 1617 1701 1792 1847 1899 1954 2037 2134 2549 2194 2352 2071 1924 2046 1915 2036 2398 2344 2306 2419 2223 2143 2037 1929 1955 1997 1992 2074 2244 2354 2446 2485 2524 2552 2356 2108 1964 1882 1970 1872 1348 1232 1292 1355 1384 1354 1320 1243 1189 1034 865 784 720 664 612 570 525
0 0 0 0 0 0 150 188 100 270 388 288 3 0 162 487 548 537 856 943 905 909 999 1049 1058 1102 1143 1164 1190 1202 1224 1258 1313 1392 1430 1409 1402 1412 1443 1473 1539 1615 1765 1870 1946 2012 2050 2090 2544 2156 2153 2244 2101 2080 2069 2026 2231 2371 2403 2369 2246 2143 2095 2056 1996 1966 1990 2119 2135 1990 1968 1716 1665 1435 1384 1357 1499 1662 1466 1457 1006 810 1263 1379 1450 1397 1326 1220 1198 1076 872 878 845 787 748 706 689
0 0 0 0 0 0 80 30 228 301 336 267 28 68 236 608 544 493 747 899 880 871 966 998 1051 1101 1142 1152 1144 1144 1135 1159 1230 1312 1364 1347 1342 1355 1406 1490 1497 1554 1687 1802 1910 2019 2086 2116 2106 2110 2044 2147 2200 2142 2193 2135 2174 2288 2361 2394 2735 2248 2209 2216 2188 2009 2010 1970 2071 2073 2117 2136 1800 1666 1694 1806 1698 1646 1520 1029 673 1066 1445 1540 1546 1433 1386 1182 1190 1250 1076 1070 1071 1019 955 896 855
0 0 0 0 0 0 26 110 194 240 309 180 37 104 302 496 492 496 634 818 828 813 879 908 982 1043 1105 1134 1114 1095 1094 1112 1172 1242 1278 1232 1228 1258 1299 1326 1378 1479 1601 1708 1810 1938 2032 2081 2074 2214 2137 1924 2075 2136 2210 2236 2256 2282 2326 2390 2410 2422 2378 2258 2125 2034 1976 2062 2208 2201 2305 2347 2209 2180 2172 2010 1887 1374 827 730 942 1228 1461 1564 1540 1393 1337 1359 1390 1429 1400 1278 1146 1024 795 790 859
0 0 0 0 0 0 18 20 141 193 273 196 36 51 242 521 479 502 567 717 755 736 768 766 859 943 1020 1064 1055 1009 1013 1058 1124 1170 1176 1140 1129 1132 1151 1216 1301 1382 1469 1578 1677 1824 1925 1960 1957 1953 2140 1874 2002 2098 2116 2139 2152 2151 2234 2300 2334 2294 2331 2274 2241 2229 2290 2292 2567 2915 2878 2630 2372 2143 1723 1804 1650 970 774 918 1107 1318 1474 1585 1647 1484 1411 1420 1373 1287 1114 884 744 712 721 730 829
0 0 0 0 0 0 2 59 106 153 200 146 30 70 233 495 454 482 515 609 673 673 692 700 748 834 931 996 1019 1002 1042 1064 1072 1081 1075 1056 1058 1073 1022 1042 1173 1227 1277 1398 1536 1693 1829 1874 1868 1890 2030 1984 2014 2119 2140 2086 2013 2022 2015 2015 1864 1649 1848 2136 2366 2349 2119 2333 2691 2720 2495 2366 2091 2033 1714 1671 1101 710 872 1027 1196 1267 1416 1590 1514 1307 1116 961 960 904 804 722 732 629 616 708 866
0 0 0 0 0 0 0 43 88 145 135 70 44 111 233 458 462 448 486 526 578 569 586 619 635 725 816 939 1024 1084 1052 991 926 944 1020 1031 1051 1063 960 838 929 1049 1132 1248 1490 1640 1760 1809 1807 1837 1951 2046 2031 2108 2186 2176 2135 2076 2012 1992 1870 1633 1539 1723 1618 1658 1739 2027 2366 2234 1972 1992 2016 2294 1488 909 738 755 901 1062 1206 1268 1318 1551 1516 1248 1180 1016 924 810 877 742 622 584 685 806 870
0 0 0 0 0 0 0 0 0 88 42 69 4 80 175 427 494 468 481 462 473 490 487 529 524 537 549 622 722 807 827 814 773 782 832 946 1035 1022 905 792 807 922 1020 1225 1444 1583 1682 1744 1768 1796 1893 2046 2084 2112 2190 2264 2242 2186 2151 2106 1867 1694 1661 1640 1494 1574 1888 2194 2124 1865 1560 1556 1849 1564 1202 993 792 844 994 1140 1188 1219 1300 1300 1268 1183 1182 1002 810 770 875 841 731 635 658 748 694
0 0 0 0 0 0 0 0 0 7 6 4 1 23 77 328 509 510 509 490 451 459 493 532 520 466 430 276 352 579 584 567 636 651 690 799 904 879 789 734 785 856 870 1146 1368 1514 1596 1664 1715 1778 1896 2024 2111 2167 2369 2261 2278 2288 2280 2158 1955 1788 1716 1605 1738 1914 2044 1979 1658 1548 1536 1448 1446 1398 1198 1126 1036 1001 1086 1174 1246 1318 1302 1347 1313 1247 1138 962 811 686 721 724 702 616 570 676 516
0 0 0 0 0 0 0 0 0 0 0 0 0 1 20 130 486 522 560 550 518 501 520 533 524 449 361 45 47 59 251 416 445 498 548 628 680 636 606 655 736 782 755 1018 1294 1422 1506 1588 1656 1761 1873 1997 2106 2254 2486 2244 2273 2275 2256 2160 2066 1989 1927 2030 2041 2000 1914 1742 1571 1426 1354 1393 1558 1490 1256 1202 1179 1138 1190 1261 1318 1256 1175 1144 1168 1074 996 883 894 960 894 733 702 624 532 626 484
0 0 0 0 0 0 0 0 0 0 0 0 1 0 1 0 272 512 496 536 566 560 523 539 509 483 410 326 165 49 74 75 154 372 430 503 520 527 524 531 552 616 660 847 1161 1368 1452 1513 1603 1741 1861 1958 2039 2083 2329 2238 2228 2198 2174 2130 2056 2046 2094 2062 1872 1762 1666 1587 1427 1250 1416 1478 1652 1667 1367 1194 1261 1288 1269 1264 1239 1151 924 783 743 791 910 1049 1066 1002 809 745 728 784 678 587 453
0 0 0 0 0 0 0 0 0 0 0 0 1 1 0 0 4 313 482 464 538 542 533 531 512 496 472 409 324 289 216 85 114 276 342 361 377 560 614 600 503 687 754 794 1028 1268 1418 1486 1559 1729 1847 1912 1958 2012 2300 2249 2194 2166 2159 2143 2067 2023 1974 1904 1783 1663 1577 1383 1404 1283 1314 1482 1625 1697 1407 1230 1303 1280 1166 1096 836 590 422 463 610 848 1052 1092 1070 807 710 726 642 456 556 383 290
0 0 0 0 0 0 0 0 0 0 0 0 8 0 0 0 0 14 344 462 476 532 542 536 557 548 530 502 399 352 336 354 381 367 375 414 406 520 644 685 672 705 778 837 970 1172 1332 1424 1465 1650 1820 2014 1974 1991 2275 2306 2213 2194 2197 2177 2123 2092 2032 1888 1698 1639 1516 1324 1441 1570 1523 1504 1638 1709 1457 1306 1166 1224 823 472 184 116 498 716 1094 926 778 950 1002 733 652 576 542 497 494 447 450
0 0 0 0 0 0 0 0 0 0 0 0 0 0 2 0 0 0 102 317 391 437 505 522 516 553 567 534 466 409 381 387 409 426 435 454 480 430 594 707 759 759 797 843 963 1158 1282 1356 1402 1515 1736 1972 2007 2057 2171 2358 2266 2210 2242 2248 2228 2203 2131 1987 1756 1583 1230 1140 1459 1734 1734 1722 1754 1673 1168 883 776 504 594 127 30 40 262 512 806 98 86 213 421 461 650 602 652 622 566 544 510
0 0 0 0 0 0 0 0 0 0 0 0 0 0 0 0 0 0 2 71 183 243 310 420 459 490 484 510 485 460 461 446 449 467 482 504 540 414 483 676 777 838 855 884 986 1194 1316 1383 1443 1493 1626 1848 2016 2111 2170 2307 2370 2313 2324 2330 2298 2368 2274 2111 1782 1504 1199 748 1125 1493 1727 1558 1134 235 0 0 12 104 215 113 4 25 60 216 455 22 37 45 52 131 262 304 370 307 356 480 492
0 0 0 0 0 0 0 0 0 0 0 0 0 0 0 0 0 0 0 96 114 96 108 177 250 325 340 379 384 448 495 520 512 508 531 566 574 395 508 593 797 893 932 950 1071 1257 1406 1462 1496 1584 1614 1742 1939 2089 2218 2324 2445 2490 2506 2457 2477 2481 2225 1944 1598 1323 1008 560 111 668 170 0 0 0 0 0 25 68 27 107 8 8 12 444 506 1 54 51 44 60 59 165 313 116 28 395 508
0 0 0 0 0 0 0 0 0 0 0 0 0 0 0 0 0 0 3 63 83 83 88 100 118 134 198 250 286 323 417 475 516 547 570 626 604 538 570 618 794 919 980 1022 1126 1288 1484 1560 1572 1640 1656 1718 1853 1966 2111 2278 2412 2522 2516 2471 2468 2376 1976 1640 1524 1241 846 423 0 0 0 0 0 0 0 0 2 11 36 66 56 34 144 290 70 1 4 8 30 6 18 41 50 13 15 152 278
0 0 0 0 0 0 0 0 0 0 0 0 0 0 0 0 0 0 0 1 11 64 72 64 92 112 147 179 220 222 290 405 456 508 558 615 658 667 662 684 865 982 1042 1090 1171 1320 1492 1620 1662 1660 1710 1753 1815 1944 2066 2185 2217 2268 2316 2298 2224 2030 1702 1543 1368 1090 493 0 0 0 0 0 0 0 0 0 0 0 36 12 11 10 73 81 54 0 0 7 18 29 27 35 35 48 64 121 38
0 0 0 0 0 0 0 0 0 0 0 0 0 0 0 0 0 0 0 0 0 5 22 22 22 79 107 143 160 172 186 286 408 470 542 641 734 766 784 817 960 1071 1139 1177 1228 1378 1496 1632 1696 1710 1752 1820 1886 1973 2104 2193 2219 2208 2138 2062 2003 1852 1668 1327 986 548 0 0 0 0 0 0 0 0 0 0 1 0 34 7 36 1 15 2 17 0 0 6 7 15 10 18 18 33 2 43 27
0 0 0 0 0 0 0 0 0 0 0 0 0 0 0 0 0 0 0 0 0 0 0 0 0 0 6 82 111 123 148 156 345 469 560 671 800 854 869 907 1023 1142 1237 1288 1306 1422 1510 1614 1698 1802 1825 1881 1975 2028 2093 2144 2157 2090 1994 1920 1886 1773 1610 749 415 0 0 0 0 0 0 0 0 0 0 0 7 2 10 0 0 0 0 0 38 22 48 9 28 26 39 3 8 0 0 19 21
0 0 0 0 0 0 0 0 0 0 0 0 0 0 0 0 0 0 0 0 0 0 0 0 0 0 0 2 76 104 113 150 304 472 574 656 816 926 938 958 1055 1170 1298 1389 1426 1477 1551 1623 1686 1781 1860 1896 1953 1986 1978 1976 2032 1959 1898 1791 1775 1726 1473 480 0 0 0 0 0 0 0 0 0 0 0 0 0 0 0 0 19 2 0 0 6 10 21 42 9 24 16 50 44 98 15 12 92
0 0 0 0 0 0 0 0 1 0 0 0 0 0 0 0 0 0 0 0 0 0 0 0 0 0 0 1 17 68 95 165 297 474 592 668 780 960 1030 1028 1088 1188 1295 1450 1538 1582 1640 1683 1731 1778 1853 1890 1892 1874 1845 1876 1951 1892 1788 1743 1626 1649 1298 340 0 0 0 0 0 0 0 0 0 0 0 0 0 0 0 0 3 13 0 0 0 1 0 0 0 5 25 1 2 0 115 81 58
0 0 0 0 0 0 0 0 0 0 0 0 0 0 0 0 0 0 0 0 0 0 0 0 0 0 0 0 6 44 97 230 330 476 616 710 782 937 1092 1150 1164 1209 1295 1431 1593 1686 1741 1770 1801 1845 1888 1921 1861 1794 1802 1875 1902 1856 1814 1691 1578 1535 947 258 0 0 0 0 0 0 0 0 0 0 0 0 0 0 0 257 0 2 0 0 0 0 0 0 0 0 0 0 0 0 0 21 84
0 0 0 0 0 0 0 0 0 0 0 0 0 0 0 0 0 0 0 0 0 0 0 0 0 0 0 0 3 26 84 248 372 492 626 738 828 906 1048 1192 1248 1256 1304 1384 1540 1718 1826 1870 1891 1906 1921 1894 1826 1703 1732 1830 1892 1830 1840 1770 1573 1402 1016 556 0 0 0 0 0 0 0 0 0 0 0 0 0 0 0 7 0 0 0 0 0 0 0 0 0 0 0 0 0 0 0 0 5
0 0 0 0 0 0 0 0 0 0 0 0 0 0 0 0 0 0 0 0 0 0 0 0 0 0 0 0 0 9 50 250 406 513 613 729 861 947 1019 1141 1272 1340 1362 1404 1486 1628 1801 1908 1930 1906 1836 1797 1733 1665 1636 1691 1716 1772 1899 1922 1682 1550 1154 658 413 0 0 0 0 0 0 0 0 0 0 0 0 0 0 0 0 0 0 0 0 0 0 0 0 0 0 0 0 0 0 4 29
0 0 0 0 0 0 0 0 0 0 0 0 0 0 0 0 0 0 0 0 0 0 0 0 0 0 0 0 0 14 36 156 382 533 618 717 858 1007 1067 1101 1194 1323 1406 1458 1491 1572 1701 1798 1824 1817 1791 1713 1678 1628 1463 1490 1526 1678 2010 2074 1948 1622 1271 722 515 38 0 0 0 0 0 0 0 0 0 0 0 0 0 0 0 0 0 0 0 0 0 0 0 0 0 0 0 0 0 1 8
0 0 0 0 0 0 0 0 0 0 0 0 0 0 0 0 0 0 0 0 0 0 0 0 2 0 0 0 0 9 32 107 290 506 640 726 836 1023 1153 1174 1186 1250 1363 1459 1507 1567 1620 1646 1728 1796 1795 1688 1601 1533 1445 1347 1316 1646 2001 2077 1850 1648 1300 768 660 0 0 0 0 0 0 0 222 217 0 0 0 0 0 0 0 0 0 0 0 0 0 0 0 0 0 0 0 0 0 0 0
Wind_Speed
17 18 21 21 23 25 22 23 19 nan nan nan nan nan nan nan nan 11 12 nan nan 17 nan nan nan nan nan 21 16 17 23 22 22 nan nan nan 10 10 11 11 11 13 15 17 16 12 4 8 13 14 14 16 16 17 17 17 17 16 18 18 17 15 15 15 15 15 16 16 16 17 17 15 14 13 12 12 13 12 11 11 10 10 10 10 11 11 11 10 10 9 9 9 8 8 7 5 5
16 18 20 19 21 19 19 19 16 nan nan nan nan nan nan nan nan nan nan 15 19 15 12 8 10 11 12 8 13 19 22 22 22 16 10 7 5 8 9 9 12 12 16 15 13 14 9 8 13 14 14 16 16 17 17 17 16 16 17 18 16 15 15 16 16 15 15 15 15 15 14 13 12 11 11 11 11 10 9 9 9 9 10 10 10 10 10 11 11 10 9 7 6 6 5 3 3
16 17 18 18 17 14 16 16 nan nan nan nan nan nan nan 14 15 12 12 10 11 10 nan nan nan nan nan nan nan 21 nan 19 14 13 8 4 4 8 7 9 11 12 12 13 12 11 11 7 10 13 14 14 13 15 15 16 16 17 16 16 16 16 15 15 15 15 15 14 13 13 12 11 10 9 10 10 10 9 8 8 9 9 9 9 9 9 9 9 8 8 7 5 4 3 4 2 2
18 19 17 17 16 15 14 14 nan nan nan nan nan nan nan 14 13 9 8 5 7 nan 10 13 11 nan nan nan 14 15 14 16 18 13 7 5 10 6 7 9 9 11 12 12 12 11 11 9 12 12 12 13 12 12 12 14 14 15 15 15 15 15 14 13 14 14 13 13 12 11 10 9 9 9 9 9 8 8 8 8 8 9 9 9 9 8 7 6 6 5 5 4 4 3 3 3 2
19 20 18 16 13 14 13 13 nan nan nan nan nan nan 13 13 10 8 nan nan nan nan nan 9 nan 14 8 8 15 16 16 14 17 20 12 8 4 5 6 7 7 8 9 11 12 11 10 9 10 12 15 14 12 12 12 12 13 13 14 14 14 13 12 12 13 13 12 11 11 10 8 8 8 9 9 9 8 9 8 8 9 9 9 8 7 6 5 5 5 4 3 3 3 2 2 2 2
17 17 19 16 14 14 12 nan nan nan nan nan nan nan nan 14 nan nan nan nan nan nan nan nan nan 13 9 13 12 10 12 15 13 17 13 5 1 5 5 6 7 8 8 10 11 12 10 8 9 10 11 12 12 13 13 12 13 12 12 12 12 12 12 12 12 11 10 10 10 8 7 8 9 9 9 8 9 9 8 8 8 7 6 5 5 5 5 4 4 4 3 3 2 1 1 4 2
19 17 19 17 15 13 16 nan nan nan nan nan nan nan nan nan nan nan nan nan nan nan nan nan nan nan 6 10 9 10 12 8 12 12 13 4 2 4 4 4 4 6 8 9 10 10 10 8 9 9 10 10 11 11 12 12 13 12 12 12 12 12 11 11 11 11 10 10 8 7 7 9 9 9 9 9 9 8 7 6 5 5 4 4 4 4 4 4 3 4 5 4 4 1 1 1 1
17 18 18 16 17 16 nan nan nan nan nan nan nan nan nan nan nan nan nan nan nan nan nan nan 9 8 12 11 6 9 13 9 6 8 7 5 2 3 4 3 2 3 6 8 9 10 8 8 8 8 8 9 11 12 12 12 13 11 10 10 10 10 10 9 9 9 9 8 8 8 8 9 9 9 8 8 7 7 5 4 4 4 3 3 3 3 3 3 4 3 3 4 4 2 2 2 3
17 14 17 15 nan nan nan nan nan nan nan nan nan nan 9 nan nan nan nan nan 2 4 3 3 nan nan 12 7 8 7 7 7 6 5 6 4 1 2 4 2 1 3 5 7 7 8 8 9 9 9 10 10 11 12 12 12 13 12 11 10 9 8 9 9 9 9 9 9 9 10 10 9 8 7 7 6 6 5 5 5 5 5 4 4 3 3 2 3 3 2 1 2 3 3 4 4 5
16 16 19 17 nan nan nan nan nan nan nan nan nan nan nan nan nan nan nan nan 5 3 4 5 3 5 4 4 4 8 3 7 6 5 4 3 2 3 3 2 1 2 5 6 7 7 7 8 9 9 9 11 11 12 13 12 13 12 11 11 10 10 10 10 11 11 12 12 12 11 10 9 8 7 7 7 7 7 8 8 7 7 6 5 4 3 3 2 1 1 2 1 2 3 4 6 7
17 18 19 18 nan nan nan nan nan nan nan nan nan nan nan nan nan nan nan 7 5 4 3 6 6 6 5 7 7 6 3 8 9 6 2 3 3 4 3 2 1 1 3 5 6 6 5 6 9 8 9 9 10 11 12 11 11 11 11 11 11 11 12 12 13 14 13 13 12 11 10 9 9 8 8 9 10 10 10 9 8 7 7 6 6 6 5 2 1 1 3 4 3 5 6 9 13
14 17 19 nan nan nan nan nan nan nan nan nan nan nan nan nan 10 9 10 8 7 6 6 5 2 2 7 7 6 2 4 8 9 6 3 4 4 3 4 4 1 1 3 4 5 6 4 4 3 7 10 10 10 10 10 10 11 11 11 11 12 13 14 14 14 14 14 13 13 12 12 12 12 11 11 11 11 11 10 8 6 5 5 5 6 6 4 2 1 3 4 4 2 3 3 5 6
12 14 16 nan nan nan nan nan nan nan nan nan nan nan nan 13 15 14 9 9 11 8 8 2 9 6 6 6 4 2 4 7 9 8 6 4 4 5 5 5 4 3 2 4 5 4 4 3 1 4 7 12 12 12 12 11 11 11 11 12 13 14 16 16 15 15 15 15 14 14 14 13 13 12 12 11 10 11 11 8 5 5 5 6 7 7 3 0 5 9 8 4 5 7 4 2 2
9 15 nan nan nan nan nan nan nan nan nan nan nan nan 14 13 17 17 13 10 14 11 10 9 1 3 5 4 4 4 4 7 10 9 6 5 5 5 6 6 5 4 2 3 4 3 2 2 1 3 5 6 7 11 12 12 11 11 11 12 14 15 16 16 16 16 16 16 15 15 14 13 11 10 10 9 10 11 11 10 7 5 4 4 7 7 4 3 10 4 7 7 7 6 5 6 6
9 11 nan nan nan nan nan nan nan nan nan nan nan 16 13 11 13 15 17 17 13 13 11 7 6 1 9 8 7 8 6 8 8 9 7 6 6 6 6 7 7 6 5 4 4 2 2 1 1 2 3 5 6 6 7 9 11 11 11 12 14 15 15 15 15 15 16 16 16 15 14 13 11 10 10 10 11 11 12 11 10 7 5 4 5 5 4 4 9 6 3 2 1 3 5 7 6
9 7 nan nan nan nan nan nan nan nan nan nan 15 nan nan 7 11 10 nan 9 10 13 11 10 9 8 9 8 8 8 8 7 7 8 8 6 6 7 7 7 7 5 6 6 4 3 3 3 3 3 3 4 5 6 7 8 11 11 11 13 14 15 15 14 14 13 14 16 16 15 14 12 12 11 13 11 12 12 12 12 11 8 7 6 6 5 11 4 3 3 2 0 1 2 4 5 4
5 8 nan nan nan nan nan nan nan nan nan 14 13 12 9 12 12 7 6 9 14 14 11 9 11 7 15 6 8 6 8 6 6 7 7 5 5 6 7 8 7 5 6 5 4 3 3 3 3 3 3 3 5 7 8 7 9 12 12 14 16 15 15 13 12 12 14 15 14 14 13 9 7 8 8 8 12 9 8 9 10 9 9 9 8 7 10 13 9 4 4 2 3 2 2 3 3
6 10 nan nan nan nan nan nan nan nan nan nan nan 13 14 12 8 8 7 5 4 6 6 8 5 3 6 9 9 8 8 8 7 7 4 3 3 5 5 5 4 4 5 5 5 4 4 4 3 3 4 5 6 8 8 7 7 9 8 9 10 12 13 14 13 12 12 10 15 12 9 9 7 7 9 9 9 9 8 10 10 10 11 10 8 8 7 6 8 7 6 8 8 7 5 7 7
nan nan nan nan nan nan nan nan nan nan nan 20 15 nan 15 11 11 9 6 8 6 5 6 7 4 5 7 11 11 10 10 8 8 7 6 4 1 0 3 4 4 5 6 6 7 6 5 4 4 5 5 6 7 8 7 6 5 6 7 9 9 11 11 12 11 11 10 11 10 10 10 9 10 10 10 11 11 12 13 13 13 13 12 11 9 8 6 6 6 5 1 2 4 4 7 7 7
nan nan nan nan nan nan nan nan nan nan nan 14 13 nan 8 8 6 7 7 10 8 12 11 7 11 12 13 13 13 12 10 9 8 7 7 4 2 2 3 4 5 6 6 6 6 7 5 5 6 6 6 6 7 8 7 5 4 6 7 8 9 9 10 10 11 10 11 11 10 10 10 10 11 11 11 13 15 11 10 11 12 10 6 6 7 9 8 8 8 7 6 5 5 6 6 7 8
nan nan nan nan nan nan nan nan nan nan nan nan 12 9 9 9 6 nan 11 6 9 11 15 21 17 17 16 16 14 13 12 10 9 7 5 2 3 4 4 5 6 6 7 7 7 7 6 6 6 6 6 6 7 7 6 6 5 6 7 9 9 10 10 9 11 10 10 11 10 9 9 10 11 11 10 10 11 11 11 11 10 9 9 9 7 9 11 11 11 11 10 10 10 10 10 9 8
nan nan nan nan nan nan nan nan nan nan nan nan nan 13 11 7 5 nan 16 nan nan 16 17 10 16 16 18 18 16 13 13 11 10 8 7 5 4 3 4 5 7 7 7 7 8 7 7 6 6 6 5 6 6 6 6 7 6 7 8 9 9 9 10 10 10 10 10 10 10 9 9 10 10 10 11 11 12 12 13 12 11 9 9 10 9 9 11 12 12 12 12 11 12 12 13 12 10
nan nan nan nan nan nan nan nan nan nan nan nan nan 9 10 11 8 13 nan nan nan 8 10 13 16 17 15 14 16 16 16 15 12 10 7 5 3 4 4 4 5 5 6 8 7 8 7 7 7 6 6 6 7 6 5 6 7 8 8 8 9 11 11 11 11 11 11 11 11 11 11 11 11 11 11 12 12 12 13 13 12 11 12 11 10 10 10 11 12 11 10 10 11 11 11 11 10
nan nan nan nan nan nan nan nan nan nan nan nan nan 10 13 9 9 12 nan nan nan 7 9 10 10 12 13 14 16 17 18 18 17 14 11 10 8 8 6 6 6 6 7 8 8 8 8 8 7 6 7 6 7 6 7 8 8 9 9 10 10 11 11 12 12 12 12 12 11 12 12 12 12 13 13 12 13 12 13 13 13 13 12 11 11 11 12 11 11 11 10 9 9 10 9 10 10
nan nan nan nan nan nan nan nan nan nan nan nan nan 11 14 17 12 nan nan 4 5 7 10 11 13 14 13 13 15 15 15 15 15 13 10 8 8 6 7 8 8 8 10 10 10 10 10 9 7 8 7 7 7 7 9 9 9 10 9 9 10 11 11 12 12 11 12 11 11 12 12 13 13 13 13 13 12 13 13 13 14 14 12 12 12 12 13 12 11 11 10 10 9 8 8 9 10
nan nan nan nan nan nan nan nan nan nan nan nan 8 5 2 nan nan nan nan 5 6 11 11 12 14 15 16 16 14 14 14 16 15 14 14 9 8 8 9 10 10 11 12 11 11 12 11 9 9 8 8 8 8 8 10 10 10 10 10 10 10 10 11 11 10 11 12 12 12 12 13 13 13 13 13 13 13 14 14 13 13 13 13 13 13 13 12 11 11 11 10 10 10 9 9 9 9
nan nan nan nan nan nan nan nan nan nan nan nan nan 8 6 nan 6 8 8 8 11 13 13 13 16 17 16 15 13 13 14 15 16 13 11 10 10 11 11 10 11 11 9 11 11 11 10 9 9 8 8 8 8 10 10 10 9 10 10 9 9 11 11 11 12 12 13 14 14 14 14 14 14 13 14 13 13 14 13 13 13 13 13 13 13 14 12 11 11 12 12 11 11 10 11 11 10
nan nan nan nan nan nan nan nan nan nan nan nan nan nan nan 8 8 10 9 10 15 17 15 16 16 16 16 17 14 12 12 12 11 11 15 14 12 12 11 10 10 9 9 10 10 8 8 8 8 8 8 8 9 11 9 9 9 10 9 8 10 11 12 13 13 13 14 14 13 14 14 14 13 13 14 13 14 13 13 13 13 13 14 13 13 13 12 11 12 13 13 12 12 12 11 10 10
nan nan nan nan nan nan nan nan nan nan 4 nan 5 0 8 12 13 7 10 13 15 16 17 18 18 17 16 17 14 11 11 10 10 11 13 11 9 10 11 9 9 9 9 8 7 6 7 7 7 8 8 9 10 10 9 9 9 9 9 9 10 10 12 12 14 13 14 13 13 14 13 13 13 13 13 13 12 12 12 11 11 12 12 12 12 12 12 12 12 12 12 12 13 12 10 10 10
nan nan nan nan nan nan nan nan nan 1 5 11 11 10 18 18 12 9 11 14 14 12 14 17 17 17 17 17 16 12 9 9 10 10 9 8 7 8 9 8 7 7 6 5 5 6 6 5 6 6 8 9 10 9 9 9 9 8 8 8 8 9 11 12 13 13 12 11 11 13 13 12 12 12 12 11 11 10 7 7 8 9 9 11 11 12 12 12 12 11 11 10 10 10 10 11 11
nan nan nan nan nan nan nan nan nan 2 7 12 nan nan nan 19 14 15 14 17 22 17 15 17 17 17 17 17 16 15 12 9 10 9 8 7 5 6 7 6 6 6 5 4 6 6 6 5 5 5 7 9 9 10 10 9 8 8 7 6 7 8 9 10 11 10 10 10 10 11 12 11 12 12 11 11 9 10 10 9 10 11 10 10 10 10 11 10 10 10 10 10 10 11 12 12 11
nan nan nan nan nan nan nan nan nan 7 9 13 nan nan nan 18 17 18 17 16 19 19 17 17 16 16 18 16 17 16 13 9 8 8 7 6 5 5 6 7 6 6 6 5 4 3 6 5 5 6 7 8 9 9 8 8 7 7 6 5 6 7 7 8 9 9 10 9 10 11 12 12 11 10 9 10 10 10 10 10 10 9 10 10 9 9 10 11 11 11 12 12 10 11 11 11 13
nan nan nan nan nan nan 8 9 6 6 11 12 nan nan 10 12 16 17 17 17 15 16 17 16 16 16 17 17 17 16 13 10 8 8 7 5 4 5 5 5 5 6 5 3 3 3 4 4 5 6 7 8 8 7 6 6 6 6 6 5 5 5 6 7 7 8 8 10 10 11 11 10 8 10 11 10 10 10 8 9 8 10 10 10 10 10 11 12 12 13 13 13 14 13 12 10 11
nan nan nan nan nan nan nan nan 6 7 10 16 nan nan 18 14 19 17 17 18 14 13 16 15 15 14 14 14 15 16 16 13 12 9 8 6 4 5 4 4 5 5 4 3 3 3 3 3 4 5 5 6 5 5 5 6 6 5 5 5 3 5 6 6 6 7 8 9 9 10 9 9 11 13 13 11 9 8 8 8 8 10 11 11 11 12 13 13 14 13 11 12 13 13 12 12 11
nan nan nan nan nan nan nan 8 14 5 12 13 nan 12 16 13 17 17 17 16 15 15 15 15 15 14 13 13 14 15 15 16 16 11 9 7 6 5 5 4 4 3 2 3 2 2 1 1 2 3 4 4 4 4 4 4 4 4 3 4 4 5 5 5 5 6 6 7 8 8 10 11 11 12 10 9 6 6 9 10 9 12 14 14 14 14 13 14 14 13 13 11 11 12 12 13 12
nan nan nan nan nan nan nan nan 10 8 9 12 nan nan 12 13 17 16 14 15 15 14 13 12 13 13 13 13 13 13 13 16 14 12 11 9 8 7 5 4 3 3 2 2 2 1 1 2 2 2 2 3 2 2 3 3 3 5 6 3 5 6 5 4 4 5 5 6 6 9 11 13 14 14 12 11 14 12 12 12 13 14 15 16 16 16 14 14 14 13 13 12 10 10 12 15 16
nan nan nan nan nan nan nan nan 12 7 5 10 nan nan 8 14 20 20 17 13 11 12 14 13 13 12 12 12 13 14 13 15 12 12 11 11 12 10 8 6 5 5 4 3 2 1 1 2 2 3 2 2 3 3 3 4 4 4 3 6 7 7 6 5 4 4 5 6 8 10 13 15 16 15 11 13 13 13 14 14 14 14 15 16 16 16 15 15 14 14 13 13 12 10 11 17 18
nan nan nan nan nan nan nan nan nan 5 2 nan nan 1 6 11 14 15 13 15 18 18 17 16 15 13 11 13 13 14 14 9 5 6 8 8 9 11 9 7 8 9 5 5 4 3 2 2 3 4 2 3 4 5 5 4 4 5 4 5 4 4 5 5 5 6 8 8 10 12 13 15 17 17 16 16 15 16 16 15 15 15 16 16 16 16 15 14 15 16 15 13 13 13 13 15 18
nan nan nan nan nan nan nan nan nan nan nan nan nan nan 5 7 9 11 16 22 21 20 21 18 14 12 11 11 12 12 9 8 5 8 8 9 10 10 10 9 10 12 11 9 7 5 4 3 3 3 3 3 4 4 4 4 3 3 4 4 6 5 4 5 7 9 10 12 13 14 15 17 18 18 18 18 18 18 19 18 18 18 19 19 18 17 16 15 15 16 17 16 14 14 13 13 16
nan nan nan nan nan nan nan nan nan nan nan nan nan nan nan 6 5 10 12 15 12 14 17 16 14 15 14 15 14 12 11 10 9 8 8 8 8 9 9 9 10 11 10 9 7 7 5 4 4 4 4 3 3 4 5 4 6 6 7 8 8 9 8 10 11 11 13 14 14 16 16 18 19 19 19 20 20 21 21 21 21 21 21 21 21 20 18 17 17 17 18 18 18 16 17 16 18
nan nan nan nan nan nan nan nan nan nan nan nan nan nan nan 4 3 7 8 11 9 13 16 14 12 14 15 nan nan nan 13 12 10 9 7 7 8 10 11 10 9 11 12 12 11 9 6 7 7 7 5 5 6 7 7 8 11 12 12 13 12 13 12 13 14 13 15 16 17 18 19 20 20 20 20 20 21 21 22 22 22 23 24 24 24 22 21 20 19 19 20 20 21 20 19 19 19
nan nan nan nan nan nan nan nan nan nan nan nan nan nan nan nan 4 8 6 9 12 12 17 18 16 15 13 13 15 nan nan nan 13 12 11 8 8 8 8 9 10 11 13 13 13 13 11 9 8 8 7 8 9 10 11 13 13 15 16 16 15 14 15 16 17 18 19 20 20 20 21 22 23 22 22 22 22 22 23 24 24 25 26 27 27 25 24 22 21 20 21 21 21 23 23 22 20
nan nan nan nan nan nan nan nan nan nan nan nan nan nan nan nan nan 4 4 7 9 9 15 17 14 14 15 15 15 14 13 nan 9 9 11 10 9 9 10 11 12 13 13 13 14 14 14 13 12 12 11 12 13 14 16 16 17 17 19 19 19 18 18 16 18 20 23 22 23 24 24 25 25 25 24 23 24 24 24 25 25 27 27 27 26 26 25 23 22 21 22 22 22 23 25 24 23
nan nan nan nan nan nan nan nan nan nan nan nan nan nan nan nan nan nan 5 3 4 10 15 14 14 16 18 18 17 17 16 14 12 12 12 12 12 12 13 13 12 13 14 14 14 15 16 15 15 14 14 16 17 18 20 20 21 21 21 21 21 21 21 21 22 24 25 27 28 27 27 26 26 25 25 24 24 25 26 26 26 27 26 25 25 25 24 22 21 19 20 20 21 23 26 25 24
nan nan nan nan nan nan nan nan nan nan nan nan nan nan nan nan nan nan 12 2 6 14 19 17 16 18 20 21 20 20 20 18 15 13 13 14 14 14 13 12 12 13 14 15 16 16 16 16 16 16 17 19 20 22 23 23 23 24 24 24 24 23 24 24 26 27 30 30 31 29 29 28 26 25 25 26 26 26 25 26 nan nan 25 25 24 nan nan 23 23 23 22 21 22 23 24 26 27
nan nan nan nan nan nan nan nan nan nan nan nan nan nan nan nan nan nan nan nan 10 16 18 17 16 17 19 21 21 21 19 17 16 16 15 14 14 15 15 14 13 13 15 16 16 17 18 18 17 17 17 20 21 23 24 25 25 26 26 26 27 27 29 30 31 31 31 30 30 29 29 28 27 26 nan nan nan 24 26 26 nan nan nan 24 24 nan nan nan nan 23 23 23 25 25 25 28 28
nan nan nan nan nan nan nan nan nan nan nan nan nan nan nan nan nan nan nan nan 15 nan 9 9 10 13 15 19 22 22 20 19 18 17 15 16 15 15 16 16 14 14 15 16 17 18 19 19 19 19 19 21 23 24 26 27 27 28 29 30 30 31 32 34 33 31 29 27 28 28 28 nan nan nan nan nan nan nan nan 25 nan nan nan 23 24 nan nan nan nan nan nan 25 27 28 nan 28 28
nan nan nan nan nan nan nan nan nan nan nan nan nan nan nan nan nan nan nan nan nan nan nan 16 18 20 19 18 19 22 21 20 21 19 16 16 16 16 16 14 14 15 16 17 17 18 19 19 20 19 19 22 23 24 26 27 29 29 30 32 31 31 33 32 32 31 29 28 nan nan nan nan nan nan nan nan nan nan nan nan nan nan 24 24 nan nan nan nan nan nan nan nan nan nan nan 29 30
nan nan nan nan nan nan nan nan nan nan nan nan nan nan nan nan nan nan nan nan nan nan nan nan nan 18 17 17 18 19 20 21 22 22 19 17 17 18 17 15 15 15 16 18 19 19 19 19 20 20 19 21 22 24 25 27 28 28 29 29 28 29 30 30 30 29 29 nan nan nan nan nan nan nan nan nan nan nan nan nan nan nan nan nan nan nan nan nan nan nan nan nan nan nan nan 32 nan
nan nan nan nan nan nan nan nan nan nan nan nan nan nan nan nan nan nan nan nan nan nan nan nan nan nan 13 16 17 17 18 20 22 23 22 20 19 17 16 16 16 15 16 18 18 19 19 19 21 21 20 21 21 23 25 26 27 27 26 26 26 26 26 28 28 30 nan nan nan nan nan nan nan nan nan nan nan nan nan nan nan nan nan nan nan nan nan nan nan nan nan nan nan nan nan nan nan
nan nan nan nan nan nan nan nan nan nan nan nan nan nan nan nan nan nan nan nan nan nan nan nan nan nan nan nan 16 16 16 18 21 22 22 22 22 20 17 16 15 15 16 17 18 19 21 21 22 21 20 21 22 24 25 25 24 24 24 25 25 25 26 27 28 nan nan nan nan nan nan nan nan nan nan nan nan nan nan nan nan nan nan nan nan nan nan nan nan nan nan nan nan nan nan nan nan
nan nan nan nan nan nan nan nan nan nan nan nan nan nan nan nan nan nan nan nan nan nan nan nan nan nan nan nan nan 16 15 18 20 20 20 22 24 22 18 15 14 14 15 17 18 20 21 21 21 21 21 21 21 23 23 24 23 22 24 25 25 26 26 28 nan nan nan nan nan nan nan nan nan nan nan nan nan nan nan nan nan nan nan nan nan nan nan nan nan nan nan nan nan nan nan nan nan
nan nan nan nan nan nan nan nan nan nan nan nan nan nan nan nan nan nan nan nan nan nan nan nan nan nan nan nan nan nan nan 18 20 21 21 23 23 22 20 18 16 16 16 17 19 20 21 21 20 21 20 19 20 21 23 23 22 23 25 26 26 26 27 29 nan nan nan nan nan nan nan nan nan nan nan nan nan nan nan nan nan nan nan nan nan nan nan nan nan nan nan nan nan nan 33 nan nan
nan nan nan nan nan nan nan nan nan nan nan nan nan nan nan nan nan nan nan nan nan nan nan nan nan nan nan nan nan nan nan 19 22 22 24 26 27 28 24 21 21 20 19 19 19 20 19 19 20 20 20 19 19 22 23 23 24 25 26 27 27 28 28 28 nan nan nan nan nan nan nan nan nan nan nan nan nan nan nan 25 nan nan nan nan nan nan nan nan nan nan nan nan nan nan nan nan nan
nan nan nan nan nan nan nan nan nan nan nan nan nan nan nan nan nan nan nan nan nan nan nan nan nan nan nan nan nan nan nan 17 19 21 23 23 24 25 24 21 19 20 20 20 18 19 17 16 16 17 18 18 19 20 21 21 24 25 26 28 29 27 28 30 nan nan nan nan nan nan nan nan nan nan nan nan nan nan nan nan nan nan nan nan nan nan nan nan nan nan nan nan nan nan nan nan nan
nan nan nan nan nan nan nan nan nan nan nan nan nan nan nan nan nan nan nan nan nan nan nan nan nan nan nan nan nan nan nan 18 20 21 24 24 25 26 25 22 20 20 19 17 18 16 14 13 14 14 14 16 19 21 23 24 26 28 29 29 28 29 32 35 35 nan nan nan nan nan nan nan nan nan nan nan nan nan nan nan nan nan nan nan nan nan nan nan nan nan nan nan nan nan nan nan nan
nan nan nan nan nan nan nan nan nan nan nan nan nan nan nan nan nan nan nan nan nan nan nan nan nan nan nan nan nan nan nan 19 20 22 23 22 21 22 21 19 18 19 18 17 16 15 14 13 14 15 17 20 21 22 24 26 31 32 33 32 29 31 35 36 39 nan nan nan nan nan nan nan nan nan nan nan nan nan nan nan nan nan nan nan nan nan nan nan nan nan nan nan nan nan nan nan nan
nan nan nan nan nan nan nan nan nan nan nan nan nan nan nan nan nan nan nan nan nan nan nan nan nan nan nan nan nan nan nan 19 21 21 19 18 19 19 18 16 13 12 13 14 13 12 12 14 15 17 18 19 22 24 26 30 35 36 34 33 33 33 36 39 42 nan nan nan nan nan nan nan 29 27 nan nan nan nan nan nan nan nan nan nan nan nan nan nan nan nan nan nan nan nan nan nan nan
Wind_Direction
49 56 57 62 76 83 94 103 108 nan nan nan nan nan nan nan nan 89 89 nan nan 102 nan nan nan nan nan 110 113 112 130 112 107 nan nan nan 85 87 102 105 108 111 106 105 110 112 80 42 32 32 29 21 15 14 21 23 21 21 19 15 12 14 20 22 21 22 23 26 30 35 36 35 33 35 36 35 33 31 26 21 14 11 9 9 5 3 1 360 359 2 356 346 346 345 341 333 319
66 70 70 68 72 79 92 98 104 nan nan nan nan nan nan nan nan nan nan 95 102 100 108 123 130 136 136 115 95 106 141 133 118 113 123 106 80 96 106 109 109 109 102 98 102 107 98 35 39 33 35 30 26 22 22 24 20 21 17 11 8 10 15 18 19 21 29 35 36 36 36 36 33 35 38 39 39 34 27 19 14 8 7 6 3 359 0 2 5 12 6 349 347 344 338 321 304
63 68 78 83 80 80 81 98 nan nan nan nan nan nan nan 109 94 97 103 110 106 94 nan nan nan nan nan nan nan 129 nan 133 132 128 120 77 90 93 95 97 108 108 101 100 97 100 98 62 17 31 43 34 30 31 31 25 18 16 13 8 7 8 11 18 20 25 33 41 38 36 34 32 31 34 35 38 38 32 23 15 11 6 3 2 1 359 360 359 5 14 14 357 337 325 319 314 282
57 68 63 73 79 82 82 90 nan nan nan nan nan nan nan 86 96 96 98 88 78 nan 108 116 123 nan nan nan 126 144 140 127 128 114 97 95 129 82 79 81 87 101 106 104 99 91 83 47 13 22 47 41 32 34 35 22 14 12 10 7 7 7 13 20 25 34 37 36 38 37 33 28 28 30 33 35 34 30 21 15 9 8 6 4 0 357 356 351 353 9 11 359 351 340 313 296 274
60 62 68 67 63 81 74 72 nan nan nan nan nan nan 85 73 63 70 nan nan nan nan nan 105 nan 114 103 109 122 133 130 137 130 125 122 150 167 106 90 108 107 106 107 112 110 101 86 21 3 9 14 21 24 28 25 13 11 11 8 6 6 10 16 23 31 36 38 35 35 35 31 30 31 32 31 30 32 31 26 19 17 15 11 6 357 348 345 348 346 351 353 344 359 9 322 244 290
65 67 72 65 64 61 71 nan nan nan nan nan nan nan nan 62 nan nan nan nan nan nan nan nan nan 96 115 115 125 143 121 128 119 131 122 124 167 126 116 105 111 117 111 113 112 110 92 21 5 4 3 2 7 6 13 13 11 8 8 7 8 10 15 25 29 32 31 32 34 29 25 28 34 34 30 33 36 35 31 28 24 21 18 8 357 353 351 351 347 327 327 317 323 8 318 309 186
60 68 79 71 64 64 56 nan nan nan nan nan nan nan nan nan nan nan nan nan nan nan nan nan nan nan 124 103 133 154 140 138 132 127 129 112 184 129 112 88 102 120 107 106 106 99 77 24 5 1 358 1 2 6 10 12 9 7 7 8 8 7 13 24 24 24 26 29 25 19 21 26 29 31 32 37 39 38 34 29 26 25 23 20 11 12 17 9 4 355 328 308 283 256 229 210 21
76 73 75 67 65 65 nan nan nan nan nan nan nan nan nan nan nan nan nan nan nan nan nan nan 125 133 125 131 113 139 168 169 187 172 159 147 153 111 80 94 83 72 95 101 99 95 49 22 13 7 4 1 358 2 4 7 7 6 8 8 8 6 7 14 16 17 18 15 11 10 16 21 24 27 31 34 38 35 26 13 12 16 15 21 27 27 27 36 38 27 354 312 291 253 226 173 114
86 76 77 72 nan nan nan nan nan nan nan nan nan nan 36 nan nan nan nan nan 76 101 64 20 nan nan 111 166 145 131 188 222 220 194 163 159 123 60 106 68 53 84 73 94 96 97 78 28 14 11 5 3 3 2 2 3 5 4 3 3 2 359 360 3 6 6 6 4 1 3 7 12 16 20 22 23 23 12 359 354 354 356 355 2 16 15 28 51 55 54 36 301 280 259 229 198 157
85 81 78 69 nan nan nan nan nan nan nan nan nan nan nan nan nan nan nan nan 33 36 110 126 160 250 156 185 142 135 191 257 250 220 179 172 169 127 99 41 3 34 80 92 101 97 89 30 9 1 1 359 359 359 359 359 357 356 356 356 356 355 356 360 1 3 2 1 360 0 1 4 4 6 9 5 0 358 353 352 349 349 348 347 349 354 7 52 88 164 182 197 225 222 202 186 172
82 84 70 72 nan nan nan nan nan nan nan nan nan nan nan nan nan nan nan 12 78 71 22 283 205 251 165 153 165 140 291 287 278 282 221 217 190 169 140 108 330 67 95 99 107 108 92 69 2 356 358 1 1 354 354 356 352 352 356 357 355 356 358 1 4 6 5 4 2 359 360 357 358 358 355 358 358 357 358 357 357 358 351 350 349 345 355 29 89 171 188 192 196 216 209 189 179
80 77 76 nan nan nan nan nan nan nan nan nan nan nan nan nan 59 41 24 11 34 35 43 101 84 195 189 151 155 133 315 299 286 268 247 226 215 206 177 161 186 186 153 133 123 131 105 91 55 360 354 358 2 0 1 359 356 356 357 358 360 1 4 6 9 10 7 5 5 2 2 2 2 0 1 1 6 9 6 8 11 10 12 9 2 359 3 37 159 180 175 189 188 282 273 264 240
74 74 75 nan nan nan nan nan nan nan nan nan nan nan nan 40 44 24 50 25 33 15 74 89 337 129 161 148 155 97 328 308 291 293 265 231 229 219 205 190 189 213 178 146 145 132 119 112 82 39 5 354 1 3 4 2 2 3 4 7 9 9 9 11 11 9 7 4 5 7 6 6 7 9 11 16 24 28 27 30 31 38 34 26 19 15 19 92 213 197 151 153 200 202 215 226 265
64 54 nan nan nan nan nan nan nan nan nan nan nan nan 41 49 44 17 7 24 38 60 59 348 54 211 186 170 127 74 8 310 303 296 268 249 230 222 226 212 217 222 209 173 161 144 133 113 68 54 20 26 34 18 14 12 13 13 16 16 13 13 14 15 14 10 8 8 9 10 14 13 12 17 27 38 46 42 43 57 64 64 49 29 24 22 11 269 257 43 100 180 184 157 172 199 197
70 65 nan nan nan nan nan nan nan nan nan nan nan 23 40 64 32 29 5 358 70 56 28 75 29 32 64 30 72 51 358 325 305 291 271 247 237 224 232 223 223 214 197 187 178 161 146 165 123 113 72 65 58 66 72 45 26 26 22 17 14 15 16 16 14 13 12 11 13 16 22 22 23 27 36 49 57 51 50 56 61 57 45 27 21 16 354 292 313 8 117 118 126 128 154 191 187
42 58 nan nan nan nan nan nan nan nan nan nan 30 nan nan 40 46 26 nan 51 37 52 48 48 76 57 6 58 75 14 335 318 301 288 267 253 233 224 229 225 216 203 183 188 184 165 165 175 162 134 106 92 93 94 83 75 45 31 26 19 16 14 14 15 13 13 18 17 17 19 25 31 31 34 40 50 56 53 48 46 47 46 36 27 11 5 275 265 303 1 273 9 197 145 149 200 196
56 60 nan nan nan nan nan nan nan nan nan 36 25 21 25 28 46 48 15 338 342 36 65 60 58 55 352 36 356 343 327 312 295 288 270 236 219 215 212 209 204 185 177 184 177 164 157 158 145 125 105 115 112 109 101 79 63 33 32 23 18 17 19 12 20 17 23 24 22 23 27 31 41 45 56 61 58 53 36 36 41 44 45 39 19 10 350 335 346 339 321 347 286 274 194 209 246
44 45 nan nan nan nan nan nan nan nan nan nan nan 18 345 15 40 25 328 325 354 59 50 63 76 72 351 333 330 340 329 328 321 308 293 251 204 197 191 184 184 165 165 166 155 152 143 133 116 114 119 125 122 122 115 96 76 43 42 38 31 25 25 17 24 30 25 31 26 29 26 32 24 48 51 58 48 46 49 56 48 47 45 41 28 15 4 344 342 353 315 339 340 331 306 307 264
nan nan nan nan nan nan nan nan nan nan nan 14 12 nan 351 14 348 32 343 5 18 27 50 19 36 28 349 325 340 347 344 346 344 340 340 343 19 91 140 152 141 156 144 142 136 136 141 140 128 119 121 126 128 123 116 102 83 48 34 29 33 29 33 28 29 26 19 19 21 22 29 29 27 35 42 43 44 48 46 54 54 54 50 42 31 16 345 335 337 327 293 205 272 266 293 294 309
nan nan nan nan nan nan nan nan nan nan nan 8 360 nan 342 17 5 33 359 360 18 14 359 35 10 20 4 350 353 359 360 1 5 3 358 5 65 78 117 107 122 127 135 138 136 146 141 123 119 123 120 121 122 117 113 95 59 33 28 28 30 30 32 30 26 20 15 11 12 17 22 31 35 39 47 56 57 50 45 51 58 61 49 17 5 348 352 359 350 349 354 352 333 339 348 350 350
nan nan nan nan nan nan nan nan nan nan nan nan 354 344 321 22 14 nan 340 325 58 56 34 1 17 12 11 1 1 9 12 13 20 25 13 29 112 128 120 116 119 135 148 160 146 124 122 119 123 121 128 118 111 106 100 77 62 38 29 26 27 27 26 25 25 18 13 7 4 8 15 28 34 40 49 54 59 60 56 54 52 42 34 30 23 9 4 9 1 2 3 1 0 1 5 11 9
nan nan nan nan nan nan nan nan nan nan nan nan nan 342 350 343 9 nan 350 nan nan 40 39 49 355 7 9 4 7 11 16 21 30 33 27 25 41 88 127 137 143 144 147 137 123 121 111 114 112 118 122 107 96 90 83 74 58 44 34 29 24 27 26 23 22 22 18 12 5 6 12 19 35 40 46 54 59 61 62 59 58 53 48 44 31 27 21 11 9 5 8 11 8 7 9 13 17
nan nan nan nan nan nan nan nan nan nan nan nan nan 356 309 353 14 20 nan nan nan 40 18 14 8 1 7 7 6 13 16 21 35 45 46 51 83 96 87 93 88 96 112 117 125 119 116 117 116 119 108 100 84 83 77 64 50 44 34 27 22 31 28 25 25 29 31 22 17 19 19 26 33 37 43 47 52 49 55 58 59 56 52 46 36 32 34 22 13 13 15 15 15 14 16 16 19
nan nan nan nan nan nan nan nan nan nan nan nan nan 327 336 343 11 32 nan nan nan 347 358 2 3 353 359 8 19 17 21 22 29 40 44 45 42 44 58 61 83 120 120 111 113 117 119 110 116 113 100 89 79 66 56 51 48 37 35 32 27 28 25 32 29 30 37 36 32 33 37 37 38 43 45 44 46 40 49 50 52 53 51 47 39 33 38 33 27 17 21 26 23 21 22 24 20
nan nan nan nan nan nan nan nan nan nan nan nan nan 343 7 7 13 nan nan 83 338 332 342 351 356 358 7 13 17 21 25 29 36 47 65 86 80 89 106 107 97 105 99 102 109 112 111 113 113 100 95 83 75 60 55 52 45 41 36 30 29 30 27 32 30 30 43 48 44 40 42 44 47 47 47 47 42 46 46 47 48 50 49 48 45 43 35 39 36 32 30 32 30 31 29 30 25
nan nan nan nan nan nan nan nan nan nan nan nan 357 38 79 nan nan nan nan 28 355 336 345 356 359 5 11 16 21 23 26 28 31 41 49 66 79 73 79 81 84 83 87 98 107 108 115 115 102 92 87 79 71 60 61 54 48 42 40 39 32 34 35 33 30 34 43 48 50 44 42 43 43 44 45 46 43 51 49 48 49 50 47 45 42 46 42 38 43 46 41 36 35 32 31 31 30
nan nan nan nan nan nan nan nan nan nan nan nan nan 36 62 nan 356 73 73 15 347 344 350 3 6 13 16 19 26 32 30 30 31 39 53 68 74 71 73 76 76 79 90 93 99 107 111 105 96 89 81 77 72 65 62 57 50 49 46 45 40 40 40 37 36 36 40 43 47 45 43 43 42 39 40 40 44 50 52 51 50 47 48 42 41 45 42 38 36 39 42 40 38 34 31 26 24
nan nan nan nan nan nan nan nan nan nan nan nan nan nan nan 62 97 49 13 12 349 348 357 5 17 18 20 19 24 34 42 46 45 45 42 47 63 72 74 77 79 84 82 85 95 106 102 88 84 78 71 72 67 66 66 59 54 52 51 46 47 48 43 41 42 38 40 42 41 41 42 43 42 41 38 38 38 42 46 45 47 45 46 41 39 42 42 37 38 39 37 35 34 35 35 27 24
nan nan nan nan nan nan nan nan nan nan 72 nan 10 315 73 73 69 62 3 354 349 351 358 8 17 20 18 18 23 35 46 50 55 58 58 65 81 90 84 87 87 88 100 87 89 91 77 79 75 65 60 61 58 57 60 60 52 50 48 47 50 47 44 45 46 43 43 42 40 41 40 39 39 40 39 37 36 36 41 46 48 47 46 41 35 36 33 36 36 33 32 29 31 28 25 28 25
nan nan nan nan nan nan nan nan nan 332 56 10 8 59 57 56 70 17 359 346 340 345 1 12 21 22 19 17 20 29 50 55 56 63 72 75 79 87 88 92 91 94 101 101 80 70 77 88 74 63 48 47 48 51 51 49 44 40 41 45 51 47 46 45 47 47 46 42 39 42 42 38 35 34 31 28 24 21 26 34 48 55 49 42 32 27 28 24 25 26 30 24 24 20 20 19 15
nan nan nan nan nan nan nan nan nan 313 48 29 nan nan nan 51 53 17 5 350 345 353 7 14 19 25 23 20 20 24 41 55 51 56 64 70 79 86 83 87 80 83 100 80 51 53 56 63 62 59 43 42 43 43 41 39 33 30 29 35 44 43 46 47 50 48 44 41 33 38 35 32 29 26 15 8 359 354 1 13 21 32 31 32 30 22 20 22 13 20 17 20 16 13 10 7 2
nan nan nan nan nan nan nan nan nan 341 83 51 nan nan nan 37 26 16 8 5 355 355 6 13 18 25 25 23 24 28 38 54 63 55 50 47 48 63 63 64 64 67 62 61 57 61 59 58 54 50 40 38 42 41 40 36 33 32 30 37 37 31 35 41 46 44 38 32 29 30 29 24 17 3 351 345 343 349 355 9 9 8 18 15 20 17 7 12 14 13 13 9 14 9 357 2 354
nan nan nan nan nan nan 125 111 99 81 14 77 nan nan 60 45 21 9 12 3 5 0 5 11 20 25 25 24 26 32 38 53 62 52 44 35 40 48 52 52 48 51 59 56 53 67 73 66 57 52 42 36 40 41 38 40 41 44 45 47 33 14 19 32 36 26 21 19 22 24 21 9 336 327 332 332 340 346 349 358 0 351 357 360 1 359 357 356 3 9 6 1 359 2 355 359 353
nan nan nan nan nan nan nan nan 82 102 53 62 nan nan 60 53 12 9 8 3 3 10 9 12 17 24 31 30 29 32 38 42 47 43 37 25 22 26 34 32 30 41 57 48 49 42 49 59 68 62 55 37 34 35 38 41 46 47 53 47 34 18 28 29 27 9 16 14 8 15 354 339 324 328 331 330 328 339 347 345 347 342 339 341 344 350 351 348 357 358 6 351 351 354 348 346 353
nan nan nan nan nan nan nan 60 74 78 79 66 nan 76 62 41 17 16 7 2 4 9 10 12 13 20 28 34 36 37 38 39 43 36 27 19 7 10 18 25 26 33 59 44 59 69 83 90 94 65 40 29 29 37 43 41 41 43 46 54 50 42 39 30 12 7 11 357 1 344 323 326 320 309 311 309 324 4 342 335 347 342 336 338 341 343 342 351 355 352 354 350 349 352 346 340 347
nan nan nan nan nan nan nan nan 118 35 43 62 nan nan 45 36 20 22 17 5 8 11 7 10 13 13 20 31 41 44 42 42 40 31 23 14 1 355 5 8 11 9 14 29 39 79 100 112 106 72 41 14 358 11 21 27 22 29 26 12 41 49 42 30 9 1 337 350 340 329 324 319 319 327 335 340 341 354 336 341 346 335 336 337 338 338 345 348 351 349 344 342 345 348 341 338 338
nan nan nan nan nan nan nan nan 122 107 140 77 nan nan 45 27 19 19 19 9 11 13 11 11 10 9 12 25 37 41 41 42 34 26 20 15 10 0 356 344 342 342 345 343 346 50 72 44 12 39 29 344 338 354 16 10 11 15 23 33 36 30 23 18 7 342 337 338 329 325 327 329 328 332 347 346 346 339 335 337 340 337 337 334 332 335 338 337 335 331 331 333 336 337 331 328 334
nan nan nan nan nan nan nan nan nan 85 63 nan nan 51 52 41 26 14 12 8 18 16 15 14 11 9 9 12 24 32 40 53 36 30 29 20 14 6 354 344 332 335 337 324 338 0 25 22 12 27 2 347 5 10 9 1 5 10 351 14 359 348 353 341 355 338 333 325 324 326 327 328 330 336 341 340 337 339 338 339 337 338 334 332 332 331 328 324 320 318 320 321 327 331 330 324 322
nan nan nan nan nan nan nan nan nan nan nan nan nan nan 154 103 48 16 11 15 17 15 12 11 2 8 11 11 12 19 24 36 29 30 19 17 14 7 358 356 353 349 340 340 342 342 357 3 15 9 351 352 8 352 326 343 329 317 320 309 328 308 317 319 318 314 315 323 327 326 325 327 327 328 329 330 334 336 337 337 337 337 338 334 329 326 324 321 320 320 321 322 319 326 334 329 323
nan nan nan nan nan nan nan nan nan nan nan nan nan nan nan 161 85 47 27 17 15 14 14 10 6 6 8 12 5 4 12 10 11 7 12 12 0 356 355 0 360 346 338 334 332 343 337 349 354 347 340 343 332 317 310 316 303 286 275 280 288 288 303 305 304 308 318 317 329 325 324 325 327 327 325 327 330 333 335 337 336 336 334 330 327 325 324 323 322 321 322 325 327 329 328 326 321
nan nan nan nan nan nan nan nan nan nan nan nan nan nan nan 180 49 70 37 13 5 4 13 14 14 19 12 nan nan nan 6 0 354 346 348 354 347 349 356 1 349 347 344 341 335 332 320 346 346 339 329 326 303 301 307 290 277 273 270 268 276 276 272 289 299 311 321 326 321 326 328 320 321 320 319 323 325 328 331 333 334 333 330 330 329 328 328 329 325 324 325 326 330 333 331 330 329
nan nan nan nan nan nan nan nan nan nan nan nan nan nan nan nan 22 57 16 357 8 350 9 15 12 21 12 12 12 nan nan nan 352 347 339 337 342 335 338 344 349 348 345 343 335 332 327 330 329 325 316 304 301 305 305 297 301 300 296 297 301 303 303 307 319 325 325 324 328 321 317 318 314 313 315 319 323 323 326 332 330 325 327 327 329 330 330 327 328 328 328 327 331 335 329 324 326
nan nan nan nan nan nan nan nan nan nan nan nan nan nan nan nan nan 75 3 4 7 345 15 20 13 19 14 18 19 9 1 nan 351 340 322 322 329 331 336 340 346 342 344 333 325 324 326 325 325 324 318 304 302 306 308 305 305 306 312 313 311 314 315 316 313 314 318 320 315 319 320 313 312 310 313 315 320 323 322 324 324 325 324 322 324 324 324 325 321 320 316 321 324 324 323 323 325
nan nan nan nan nan nan nan nan nan nan nan nan nan nan nan nan nan nan 318 352 31 27 39 35 25 20 13 14 17 13 7 358 348 344 333 330 326 332 339 338 331 339 330 316 317 315 321 322 317 319 309 304 304 305 309 310 309 308 308 308 309 311 313 315 313 311 311 311 314 316 314 314 312 310 310 315 316 317 317 319 317 317 319 321 321 322 319 313 307 307 311 315 318 320 324 323 323
nan nan nan nan nan nan nan nan nan nan nan nan nan nan nan nan nan nan 304 357 59 52 48 39 27 17 10 9 9 10 7 2 355 344 337 331 329 331 325 322 329 322 310 312 313 313 313 313 313 310 309 305 306 308 309 310 308 308 308 306 307 307 308 307 303 302 307 310 311 310 313 313 310 310 310 310 312 315 315 314 nan nan 317 317 315 nan nan 309 310 312 313 315 317 319 321 320 321
nan nan nan nan nan nan nan nan nan nan nan nan nan nan nan nan nan nan nan nan 49 60 49 38 22 14 8 5 4 5 3 358 356 355 345 335 327 323 321 315 311 316 307 307 309 307 305 304 307 309 312 305 306 310 311 312 311 306 306 306 310 308 304 299 302 305 308 310 312 312 310 310 309 307 nan nan nan 311 311 311 nan nan nan 314 315 nan nan nan nan 313 317 318 318 317 319 322 324
nan nan nan nan nan nan nan nan nan nan nan nan nan nan nan nan nan nan nan nan 46 nan 68 49 24 13 13 6 359 356 355 352 348 349 345 338 327 317 306 315 321 306 300 304 305 303 300 302 306 310 313 304 305 311 312 314 311 308 309 310 313 311 307 305 304 306 307 309 312 312 311 nan nan nan nan nan nan nan nan 313 nan nan nan 316 316 nan nan nan nan nan nan 317 317 318 nan 319 322
nan nan nan nan nan nan nan nan nan nan nan nan nan nan nan nan nan nan nan nan nan nan nan 33 18 16 11 360 352 349 345 344 344 341 339 330 311 308 307 314 309 308 300 301 301 299 301 305 308 315 311 308 309 312 313 312 311 312 313 315 317 315 312 310 313 314 316 317 nan nan nan nan nan nan nan nan nan nan nan nan nan nan 318 317 nan nan nan nan nan nan nan nan nan nan nan 316 318
nan nan nan nan nan nan nan nan nan nan nan nan nan nan nan nan nan nan nan nan nan nan nan nan nan 19 5 352 343 335 335 338 341 340 336 325 320 315 310 309 303 303 304 303 304 304 308 313 319 323 322 315 316 314 316 314 315 317 318 319 321 318 318 317 318 318 318 nan nan nan nan nan nan nan nan nan nan nan nan nan nan nan nan nan nan nan nan nan nan nan nan nan nan nan nan 319 nan
nan nan nan nan nan nan nan nan nan nan nan nan nan nan nan nan nan nan nan nan nan nan nan nan nan nan 354 342 324 321 332 339 340 340 340 335 330 319 312 307 309 309 308 305 306 308 311 314 320 325 327 318 318 316 317 317 322 323 322 322 322 320 321 319 319 320 nan nan nan nan nan nan nan nan nan nan nan nan nan nan nan nan nan nan nan nan nan nan nan nan nan nan nan nan nan nan nan
nan nan nan nan nan nan nan nan nan nan nan nan nan nan nan nan nan nan nan nan nan nan nan nan nan nan nan nan 312 329 334 338 339 341 343 341 338 332 319 312 311 314 312 307 305 310 310 314 317 324 323 322 323 322 316 322 323 325 323 322 320 318 318 316 317 nan nan nan nan nan nan nan nan nan nan nan nan nan nan nan nan nan nan nan nan nan nan nan nan nan nan nan nan nan nan nan nan
nan nan nan nan nan nan nan nan nan nan nan nan nan nan nan nan nan nan nan nan nan nan nan nan nan nan nan nan nan 331 335 340 340 342 342 340 338 335 327 313 304 301 305 301 307 305 310 317 319 324 330 327 324 319 320 323 324 321 321 321 321 319 315 312 nan nan nan nan nan nan nan nan nan nan nan nan nan nan nan nan nan nan nan nan nan nan nan nan nan nan nan nan nan nan nan nan nan
nan nan nan nan nan nan nan nan nan nan nan nan nan nan nan nan nan nan nan nan nan nan nan nan nan nan nan nan nan nan nan 339 338 340 339 335 328 327 327 321 308 299 293 298 305 308 317 318 316 323 328 323 322 322 321 320 320 320 323 321 317 316 316 316 nan nan nan nan nan nan nan nan nan nan nan nan nan nan nan nan nan nan nan nan nan nan nan nan nan nan nan nan nan nan 317 nan nan
nan nan nan nan nan nan nan nan nan nan nan nan nan nan nan nan nan nan nan nan nan nan nan nan nan nan nan nan nan nan nan 339 339 338 336 333 331 330 328 325 323 320 318 315 314 309 312 315 318 323 325 329 327 323 324 324 324 322 318 317 314 316 317 315 nan nan nan nan nan nan nan nan nan nan nan nan nan nan nan 311 nan nan nan nan nan nan nan nan nan nan nan nan nan nan nan nan nan
nan nan nan nan nan nan nan nan nan nan nan nan nan nan nan nan nan nan nan nan nan nan nan nan nan nan nan nan nan nan nan 320 326 333 329 328 329 330 330 330 328 328 328 327 323 314 308 312 317 320 328 335 329 317 317 315 316 312 306 306 308 308 307 308 nan nan nan nan nan nan nan nan nan nan nan nan nan nan nan nan nan nan nan nan nan nan nan nan nan nan nan nan nan nan nan nan nan
nan nan nan nan nan nan nan nan nan nan nan nan nan nan nan nan nan nan nan nan nan nan nan nan nan nan nan nan nan nan nan 325 330 328 330 331 333 336 341 345 344 341 336 335 332 322 329 328 323 326 324 311 302 314 319 320 311 299 295 298 304 307 307 309 308 nan nan nan nan nan nan nan nan nan nan nan nan nan nan nan nan nan nan nan nan nan nan nan nan nan nan nan nan nan nan nan nan
nan nan nan nan nan nan nan nan nan nan nan nan nan nan nan nan nan nan nan nan nan nan nan nan nan nan nan nan nan nan nan 324 323 328 332 329 330 336 343 352 357 355 352 344 335 338 344 329 327 328 323 322 325 322 317 314 299 296 297 302 306 308 312 308 304 nan nan nan nan nan nan nan nan nan nan nan nan nan nan nan nan nan nan nan nan nan nan nan nan nan nan nan nan nan nan nan nan
nan nan nan nan nan nan nan nan nan nan nan nan nan nan nan nan nan nan nan nan nan nan nan nan nan nan nan nan nan nan nan 320 321 330 329 325 327 333 341 349 356 0 5 357 350 342 334 327 329 326 326 328 331 323 321 314 298 293 299 307 314 315 312 303 298 nan nan nan nan nan nan nan 299 298 nan nan nan nan nan nan nan nan nan nan nan nan nan nan nan nan nan nan nan nan nan nan nan